| time (UTC) | temp C | wind direction | speed KPH | gust KPH | rain 1hr cm | rain 24hr cm | rain mn cm | humidity % | barometer mb |
| 20260502152049 | 22 | 320 | 14.5 | 24.1 | 0.00 | 0.00 | 0.00 | 15 | 1016.5 |
| 20260502151603 | 21 | 17 | 14.5 | 24.1 | 0.00 | 0.00 | 0.00 | 15 | 1016.6 |
| 20260502151552 | 11 | 0 | 0.0 | 3.2 | 0.00 | 0.00 | 0.00 | 96 | 1015.1 |
| 20260502151047 | 21 | 357 | 16.1 | 24.1 | 0.00 | 0.00 | 0.00 | 15 | 1016.5 |
| 20260502150546 | 21 | 352 | 14.5 | 24.1 | 0.00 | 0.00 | 0.00 | 15 | 1016.5 |
| 20260502150105 | 21 | 338 | 16.1 | 24.1 | 0.00 | 0.00 | 0.00 | 15 | 1016.4 |
| 20260502130544 | 12 | 316 | 11.3 | 16.1 | 0.00 | 0.00 | 0.00 | 21 | 1015.5 |
| 20260502123545 | 12 | 313 | 11.3 | 16.1 | 0.00 | 0.00 | 0.00 | 21 | 1015.4 |
| 20260502123103 | 12 | 333 | 11.3 | 16.1 | 0.00 | 0.00 | 0.00 | 21 | 1015.3 |
| 20260502123057 | 10 | 0 | 0.0 | 0.0 | 0.00 | 0.00 | 0.00 | 92 | 1014.1 |
| 20260502122546 | 12 | 312 | 8.0 | 16.1 | 0.00 | 0.00 | 0.00 | 22 | 1015.4 |
| 20260502122044 | 12 | 325 | 11.3 | 16.1 | 0.00 | 0.00 | 0.00 | 22 | 1015.3 |
| 20260502121555 | 12 | 321 | 11.3 | 17.7 | 0.00 | 0.00 | 0.00 | 22 | 1015.1 |
| 20260502121546 | 10 | 0 | 0.0 | 0.0 | 0.00 | 0.00 | 0.00 | 90 | 1014.1 |
| 20260502121043 | 12 | 311 | 11.3 | 17.7 | 0.00 | 0.00 | 0.00 | 21 | 1015.2 |
| 20260502120544 | 12 | 322 | 12.9 | 17.7 | 0.00 | 0.00 | 0.00 | 21 | 1015.2 |
| 20260502115543 | 13 | 320 | 11.3 | 17.7 | 0.00 | 0.00 | 0.00 | 21 | 1015.2 |
| 20260502115043 | 12 | 324 | 11.3 | 16.1 | 0.00 | 0.00 | 0.00 | 21 | 1015.1 |
| 20260502114551 | 13 | 336 | 9.7 | 14.5 | 0.00 | 0.00 | 0.00 | 21 | 1015.2 |
| 20260502114545 | 10 | 0 | 0.0 | 0.0 | 0.00 | 0.00 | 0.00 | 86 | 1013.9 |
| 20260502114047 | 13 | 328 | 9.7 | 17.7 | 0.00 | 0.00 | 0.00 | 21 | 1015.2 |
| 20260502113550 | 13 | 323 | 12.9 | 19.3 | 0.00 | 0.00 | 0.00 | 21 | 1015.0 |
| 20260502113053 | 13 | 328 | 12.9 | 19.3 | 0.00 | 0.00 | 0.00 | 21 | 1015.0 |
| 20260502113051 | 10 | 0 | 0.0 | 0.0 | 0.00 | 0.00 | 0.00 | 84 | 1013.9 |
| 20260502112542 | 13 | 322 | 12.9 | 19.3 | 0.00 | 0.00 | 0.00 | 21 | 1015.2 |
| 20260502112043 | 13 | 326 | 11.3 | 19.3 | 0.00 | 0.00 | 0.00 | 21 | 1015.1 |
| 20260502111552 | 11 | 0 | 0.0 | 0.0 | 0.00 | 0.00 | 0.00 | 85 | 1013.6 |
| 20260502111548 | 13 | 323 | 12.9 | 19.3 | 0.00 | 0.00 | 0.00 | 22 | 1015.1 |
| 20260502111042 | 13 | 334 | 12.9 | 19.3 | 0.00 | 0.00 | 0.00 | 22 | 1015.1 |
| 20260502110543 | 13 | 300 | 11.3 | 19.3 | 0.00 | 0.00 | 0.00 | 22 | 1015.2 |
| 20260502110058 | 13 | 300 | 11.3 | 17.7 | 0.00 | 0.00 | 0.00 | 22 | 1015.1 |
| 20260502110040 | 11 | 0 | 0.0 | 0.0 | 0.00 | 0.00 | 0.00 | 86 | 1013.5 |
| 20260502105549 | 13 | 316 | 12.9 | 17.7 | 0.00 | 0.00 | 0.00 | 22 | 1015.2 |
| 20260502105047 | 13 | 307 | 14.5 | 17.7 | 0.00 | 0.00 | 0.00 | 22 | 1015.2 |
| 20260502104552 | 12 | 324 | 11.3 | 16.1 | 0.00 | 0.00 | 0.00 | 23 | 1015.1 |
| 20260502104549 | 11 | 0 | 0.0 | 0.0 | 0.00 | 0.00 | 0.00 | 85 | 1013.5 |
| 20260502104047 | 12 | 309 | 11.3 | 16.1 | 0.00 | 0.00 | 0.00 | 23 | 1015.2 |
| 20260502103546 | 12 | 297 | 11.3 | 17.7 | 0.00 | 0.00 | 0.00 | 23 | 1015.1 |
| 20260502103058 | 13 | 310 | 11.3 | 17.7 | 0.00 | 0.00 | 0.00 | 23 | 1015.2 |
| 20260502103045 | 11 | 0 | 0.0 | 1.6 | 0.00 | 0.00 | 0.00 | 86 | 1013.5 |
| 20260502102549 | 13 | 276 | 11.3 | 17.7 | 0.00 | 0.00 | 0.00 | 23 | 1015.1 |
| 20260502102044 | 13 | 302 | 12.9 | 17.7 | 0.00 | 0.00 | 0.00 | 23 | 1015.0 |
| 20260502101613 | 13 | 316 | 12.9 | 17.7 | 0.00 | 0.00 | 0.00 | 22 | 1014.9 |
| 20260502101543 | 11 | 0 | 0.0 | 0.0 | 0.00 | 0.00 | 0.00 | 85 | 1013.5 |
| 20260502101042 | 13 | 279 | 11.3 | 16.1 | 0.00 | 0.00 | 0.00 | 22 | 1014.9 |
| 20260502100544 | 13 | 309 | 11.3 | 16.1 | 0.00 | 0.00 | 0.00 | 22 | 1015.0 |
| 20260502100111 | 13 | 304 | 11.3 | 16.1 | 0.00 | 0.00 | 0.00 | 22 | 1015.0 |
| 20260502091047 | 13 | 310 | 11.3 | 17.7 | 0.00 | 0.00 | 0.00 | 22 | 1015.2 |
| 20260502090547 | 13 | 311 | 11.3 | 16.1 | 0.00 | 0.00 | 0.00 | 22 | 1015.2 |
| 20260502080103 | 13 | 326 | 8.0 | 12.9 | 0.00 | 0.00 | 0.00 | 21 | 1015.6 |
| 20260502071047 | 15 | 330 | 9.7 | 14.5 | 0.00 | 0.00 | 0.00 | 21 | 1015.6 |
| 20260502070549 | 14 | 304 | 9.7 | 14.5 | 0.00 | 0.00 | 0.00 | 21 | 1015.6 |
| 20260502070057 | 14 | 326 | 8.0 | 14.5 | 0.00 | 0.00 | 0.00 | 21 | 1015.7 |
| 20260502070041 | 12 | 0 | 0.0 | 0.0 | 0.00 | 0.00 | 0.00 | 88 | 1014.6 |
| 20260502065546 | 14 | 294 | 9.7 | 14.5 | 0.00 | 0.00 | 0.00 | 22 | 1015.7 |
| 20260502065049 | 14 | 314 | 8.0 | 12.9 | 0.00 | 0.00 | 0.00 | 22 | 1015.7 |
| 20260502064634 | 14 | 344 | 6.4 | 12.9 | 0.00 | 0.00 | 0.00 | 22 | 1015.6 |
| 20260502064552 | 14 | 344 | 6.4 | 12.9 | 0.00 | 0.00 | 0.00 | 22 | 1015.6 |
| 20260502064546 | 12 | 0 | 0.0 | 0.0 | 0.00 | 0.00 | 0.00 | 88 | 1014.6 |
| 20260502064045 | 15 | 322 | 9.7 | 12.9 | 0.00 | 0.00 | 0.00 | 22 | 1015.6 |
| 20260502063546 | 15 | 304 | 8.0 | 11.3 | 0.00 | 0.00 | 0.00 | 22 | 1015.6 |
| 20260502063101 | 12 | 0 | 0.0 | 3.2 | 0.00 | 0.00 | 0.00 | 87 | 1014.6 |
| 20260502063053 | 14 | 307 | 9.7 | 11.3 | 0.00 | 0.00 | 0.00 | 22 | 1015.6 |
| 20260502062548 | 14 | 304 | 6.4 | 11.3 | 0.00 | 0.00 | 0.00 | 22 | 1015.5 |
| 20260502062048 | 15 | 322 | 8.0 | 11.3 | 0.00 | 0.00 | 0.00 | 22 | 1015.5 |
| 20260502061549 | 12 | 0 | 0.0 | 3.2 | 0.00 | 0.00 | 0.00 | 86 | 1014.7 |
| 20260502061101 | 15 | 326 | 6.4 | 12.9 | 0.00 | 0.00 | 0.00 | 22 | 1015.5 |
| 20260502060548 | 15 | 301 | 8.0 | 12.9 | 0.00 | 0.00 | 0.00 | 22 | 1015.5 |
| 20260502060057 | 15 | 301 | 9.7 | 12.9 | 0.00 | 0.00 | 0.00 | 21 | 1015.4 |
| 20260502060041 | 13 | 0 | 0.0 | 0.0 | 0.00 | 0.00 | 0.00 | 86 | 1014.7 |
| 20260502055546 | 15 | 316 | 8.0 | 11.3 | 0.00 | 0.00 | 0.00 | 21 | 1015.3 |
| 20260502055043 | 16 | 331 | 8.0 | 11.3 | 0.00 | 0.00 | 0.00 | 21 | 1015.3 |
| 20260502054559 | 16 | 307 | 8.0 | 11.3 | 0.00 | 0.00 | 0.00 | 21 | 1015.4 |
| 20260502054548 | 13 | 0 | 0.0 | 3.2 | 0.00 | 0.00 | 0.00 | 86 | 1014.7 |
| 20260502054048 | 16 | 311 | 9.7 | 11.3 | 0.00 | 0.00 | 0.00 | 20 | 1015.4 |
| 20260502053543 | 16 | 328 | 8.0 | 14.5 | 0.00 | 0.00 | 0.00 | 20 | 1015.5 |
| 20260502053108 | 17 | 309 | 9.7 | 14.5 | 0.00 | 0.00 | 0.00 | 20 | 1015.5 |
| 20260502053059 | 13 | 0 | 0.0 | 0.0 | 0.00 | 0.00 | 0.00 | 84 | 1014.8 |
| 20260502052543 | 17 | 307 | 9.7 | 12.9 | 0.00 | 0.00 | 0.00 | 20 | 1015.3 |
| 20260502052047 | 17 | 304 | 9.7 | 17.7 | 0.00 | 0.00 | 0.00 | 20 | 1015.3 |
| 20260502051550 | 17 | 302 | 9.7 | 17.7 | 0.00 | 0.00 | 0.00 | 19 | 1015.3 |
| 20260502051548 | 14 | 0 | 0.0 | 0.0 | 0.00 | 0.00 | 0.00 | 84 | 1015.0 |
| 20260502051050 | 17 | 331 | 11.3 | 17.7 | 0.00 | 0.00 | 0.00 | 19 | 1015.1 |
| 20260502050547 | 17 | 317 | 12.9 | 19.3 | 0.00 | 0.00 | 0.00 | 19 | 1015.1 |
| 20260502050054 | 17 | 314 | 12.9 | 19.3 | 0.00 | 0.00 | 0.00 | 19 | 1015.1 |
| 20260502050048 | 14 | 0 | 0.0 | 0.0 | 0.00 | 0.00 | 0.00 | 84 | 1014.9 |
| 20260502045543 | 17 | 300 | 12.9 | 19.3 | 0.00 | 0.00 | 0.00 | 19 | 1015.0 |
| 20260502045043 | 18 | 317 | 11.3 | 17.7 | 0.00 | 0.00 | 0.00 | 19 | 1015.0 |
| 20260502044552 | 18 | 341 | 11.3 | 17.7 | 0.00 | 0.00 | 0.00 | 19 | 1015.0 |
| 20260502044548 | 14 | 0 | 0.0 | 0.0 | 0.00 | 0.00 | 0.00 | 84 | 1014.8 |
| 20260502044047 | 18 | 289 | 8.0 | 12.9 | 0.00 | 0.00 | 0.00 | 19 | 1014.9 |
| 20260502043543 | 18 | 269 | 6.4 | 12.9 | 0.00 | 0.00 | 0.00 | 19 | 1014.8 |
| 20260502043107 | 18 | 301 | 4.8 | 9.7 | 0.00 | 0.00 | 0.00 | 19 | 1014.8 |
| 20260502043054 | 15 | 0 | 0.0 | 0.0 | 0.00 | 0.00 | 0.00 | 83 | 1014.7 |
| 20260502042543 | 18 | 325 | 4.8 | 8.0 | 0.00 | 0.00 | 0.00 | 20 | 1014.8 |
| 20260502042046 | 18 | 276 | 4.8 | 9.7 | 0.00 | 0.00 | 0.00 | 20 | 1014.6 |
| 20260502041554 | 18 | 276 | 4.8 | 9.7 | 0.00 | 0.00 | 0.00 | 20 | 1014.6 |
| 20260502041049 | 18 | 292 | 6.4 | 9.7 | 0.00 | 0.00 | 0.00 | 20 | 1014.6 |
| 20260502040548 | 17 | 278 | 6.4 | 8.0 | 0.00 | 0.00 | 0.00 | 21 | 1014.6 |
| 20260502040057 | 18 | 283 | 6.4 | 8.0 | 0.00 | 0.00 | 0.00 | 20 | 1014.6 |
| 20260502040053 | 15 | 0 | 0.0 | 0.0 | 0.00 | 0.00 | 0.00 | 80 | 1014.4 |
| 20260502035546 | 18 | 283 | 4.8 | 8.0 | 0.00 | 0.00 | 0.00 | 20 | 1014.5 |
| 20260502035045 | 18 | 283 | 4.8 | 9.7 | 0.00 | 0.00 | 0.00 | 19 | 1014.4 |
| 20260502034613 | 19 | 274 | 6.4 | 11.3 | 0.00 | 0.00 | 0.00 | 19 | 1014.2 |
| 20260502034549 | 16 | 0 | 0.0 | 0.0 | 0.00 | 0.00 | 0.00 | 79 | 1014.1 |
| 20260502034043 | 19 | 289 | 6.4 | 11.3 | 0.00 | 0.00 | 0.00 | 19 | 1014.2 |
| 20260502033543 | 20 | 284 | 4.8 | 8.0 | 0.00 | 0.00 | 0.00 | 18 | 1014.1 |
| 20260502033106 | 20 | 328 | 3.2 | 14.5 | 0.00 | 0.00 | 0.00 | 18 | 1014.1 |
| 20260502033043 | 16 | 0 | 0.0 | 6.4 | 0.00 | 0.00 | 0.00 | 79 | 1014.1 |
| 20260502032548 | 21 | 307 | 3.2 | 16.1 | 0.00 | 0.00 | 0.00 | 18 | 1014.0 |
| 20260502032047 | 21 | 345 | 8.0 | 16.1 | 0.00 | 0.00 | 0.00 | 17 | 1013.9 |
| 20260502031603 | 21 | 4 | 9.7 | 17.7 | 0.00 | 0.00 | 0.00 | 17 | 1013.8 |
| 20260502031549 | 16 | 219 | 1.6 | 8.0 | 0.00 | 0.00 | 0.00 | 77 | 1014.1 |
| 20260502031047 | 21 | 7 | 8.0 | 20.9 | 0.00 | 0.00 | 0.00 | 17 | 1013.6 |
| 20260502030547 | 21 | 320 | 12.9 | 20.9 | 0.00 | 0.00 | 0.00 | 17 | 1013.6 |
| 20260502030059 | 21 | 21 | 12.9 | 20.9 | 0.00 | 0.00 | 0.00 | 17 | 1013.5 |
| 20260502030050 | 17 | 0 | 3.2 | 9.7 | 0.00 | 0.00 | 0.00 | 75 | 1013.7 |
| 20260502025546 | 22 | 22 | 11.3 | 20.9 | 0.00 | 0.00 | 0.00 | 17 | 1013.5 |
| 20260502025046 | 22 | 27 | 12.9 | 20.9 | 0.00 | 0.00 | 0.00 | 17 | 1013.3 |
| 20260502024557 | 22 | 9 | 9.7 | 20.9 | 0.00 | 0.00 | 0.00 | 17 | 1013.2 |
| 20260502024546 | 18 | 236 | 4.8 | 12.9 | 0.00 | 0.00 | 0.00 | 72 | 1013.4 |
| 20260502024047 | 22 | 6 | 12.9 | 20.9 | 0.00 | 0.00 | 0.00 | 17 | 1013.2 |
| 20260502023551 | 22 | 11 | 14.5 | 24.1 | 0.00 | 0.00 | 0.00 | 16 | 1013.2 |
| 20260502023129 | 22 | 13 | 9.7 | 24.1 | 0.00 | 0.00 | 0.00 | 16 | 1013.1 |
| 20260502023050 | 18 | 232 | 3.2 | 14.5 | 0.00 | 0.00 | 0.00 | 70 | 1013.4 |
| 20260502022543 | 22 | 13 | 14.5 | 24.1 | 0.00 | 0.00 | 0.00 | 16 | 1013.1 |
| 20260502022048 | 23 | 33 | 9.7 | 24.1 | 0.00 | 0.00 | 0.00 | 16 | 1013.1 |
| 20260502021553 | 23 | 352 | 4.8 | 12.9 | 0.00 | 0.00 | 0.00 | 16 | 1013.1 |
| 20260502021543 | 20 | 228 | 6.4 | 14.5 | 0.00 | 0.00 | 0.00 | 66 | 1013.2 |
| 20260502021049 | 23 | 13 | 4.8 | 12.9 | 0.00 | 0.00 | 0.00 | 16 | 1013.1 |
| 20260502020547 | 24 | 29 | 4.8 | 16.1 | 0.00 | 0.00 | 0.00 | 15 | 1013.0 |
| 20260502020057 | 25 | 340 | 9.7 | 16.1 | 0.00 | 0.00 | 0.00 | 15 | 1012.9 |
| 20260502020049 | 21 | 231 | 3.2 | 9.7 | 0.00 | 0.00 | 0.00 | 64 | 1013.0 |
| 20260502015547 | 25 | 352 | 4.8 | 14.5 | 0.00 | 0.00 | 0.00 | 15 | 1012.8 |
| 20260502015048 | 25 | 293 | 8.0 | 19.3 | 0.00 | 0.00 | 0.00 | 15 | 1012.8 |
| 20260502014555 | 25 | 303 | 9.7 | 19.3 | 0.00 | 0.00 | 0.00 | 14 | 1012.7 |
| 20260502014550 | 21 | 231 | 6.4 | 12.9 | 0.00 | 0.00 | 0.00 | 62 | 1012.9 |
| 20260502014050 | 25 | 280 | 12.9 | 19.3 | 0.00 | 0.00 | 0.00 | 14 | 1012.6 |
| 20260502013548 | 26 | 275 | 8.0 | 20.9 | 0.00 | 0.00 | 0.00 | 14 | 1012.5 |
| 20260502013054 | 26 | 298 | 9.7 | 20.9 | 0.00 | 0.00 | 0.00 | 14 | 1012.5 |
| 20260502013045 | 22 | 243 | 3.2 | 11.3 | 0.00 | 0.00 | 0.00 | 62 | 1012.7 |
| 20260502012544 | 26 | 283 | 12.9 | 19.3 | 0.00 | 0.00 | 0.00 | 14 | 1012.5 |
| 20260502012043 | 26 | 308 | 12.9 | 24.1 | 0.00 | 0.00 | 0.00 | 14 | 1012.5 |
| 20260502011557 | 26 | 293 | 16.1 | 24.1 | 0.00 | 0.00 | 0.00 | 14 | 1012.5 |
| 20260502011545 | 22 | 261 | 6.4 | 16.1 | 0.00 | 0.00 | 0.00 | 62 | 1012.6 |
| 20260502011043 | 26 | 310 | 12.9 | 22.5 | 0.00 | 0.00 | 0.00 | 14 | 1012.5 |
| 20260502010550 | 26 | 270 | 11.3 | 19.3 | 0.00 | 0.00 | 0.00 | 14 | 1012.4 |
| 20260502010052 | 26 | 283 | 9.7 | 19.3 | 0.00 | 0.00 | 0.00 | 13 | 1012.5 |
| 20260502010046 | 22 | 276 | 9.7 | 19.3 | 0.00 | 0.00 | 0.00 | 61 | 1012.7 |
| 20260502005543 | 27 | 275 | 9.7 | 19.3 | 0.00 | 0.00 | 0.00 | 13 | 1012.5 |
| 20260502005048 | 27 | 310 | 6.4 | 17.7 | 0.00 | 0.00 | 0.00 | 13 | 1012.4 |
| 20260502004608 | 27 | 240 | 8.0 | 17.7 | 0.00 | 0.00 | 0.00 | 13 | 1012.4 |
| 20260502004538 | 23 | 256 | 12.9 | 20.9 | 0.00 | 0.00 | 0.00 | 60 | 1012.7 |
| 20260502004044 | 27 | 306 | 9.7 | 20.9 | 0.00 | 0.00 | 0.00 | 13 | 1012.4 |
| 20260502003543 | 27 | 278 | 11.3 | 22.5 | 0.00 | 0.00 | 0.00 | 13 | 1012.3 |
| 20260502003049 | 27 | 243 | 14.5 | 22.5 | 0.00 | 0.00 | 0.00 | 13 | 1012.3 |
| 20260502003045 | 23 | 209 | 9.7 | 22.5 | 0.00 | 0.00 | 0.00 | 59 | 1012.5 |
| 20260502002543 | 27 | 311 | 11.3 | 20.9 | 0.00 | 0.00 | 0.00 | 13 | 1012.2 |
| 20260502002047 | 27 | 254 | 11.3 | 20.9 | 0.00 | 0.00 | 0.00 | 13 | 1012.5 |
| 20260502001555 | 27 | 6 | 1.6 | 16.1 | 0.00 | 0.00 | 0.00 | 13 | 1012.4 |
| 20260502001544 | 23 | 307 | 11.3 | 20.9 | 0.00 | 0.00 | 0.00 | 57 | 1012.5 |
| 20260502001048 | 27 | 231 | 9.7 | 16.1 | 0.00 | 0.00 | 0.00 | 13 | 1012.4 |
| 20260502000546 | 27 | 243 | 4.8 | 12.9 | 0.00 | 0.00 | 0.00 | 13 | 1012.4 |
| 20260502000054 | 27 | 274 | 4.8 | 11.3 | 0.00 | 0.00 | 0.00 | 13 | 1012.4 |
| 20260501235549 | 27 | 27 | 3.2 | 9.7 | 0.00 | 0.00 | 0.00 | 13 | 1012.3 |
| 20260501235047 | 27 | 0 | 0.0 | 11.3 | 0.00 | 0.00 | 0.00 | 13 | 1012.4 |
| 20260501234557 | 27 | 107 | 6.4 | 14.5 | 0.00 | 0.00 | 0.00 | 13 | 1012.3 |
| 20260501234545 | 24 | 222 | 12.9 | 24.1 | 0.00 | 0.00 | 0.00 | 54 | 1012.3 |
| 20260501234045 | 27 | 65 | 3.2 | 14.5 | 0.00 | 0.00 | 0.00 | 13 | 1012.2 |
| 20260501233547 | 27 | 136 | 6.4 | 14.5 | 0.00 | 0.00 | 0.00 | 13 | 1012.3 |
| 20260501233057 | 27 | 268 | 8.0 | 17.7 | 0.00 | 0.00 | 0.00 | 14 | 1012.4 |
| 20260501233047 | 25 | 246 | 9.7 | 17.7 | 0.00 | 0.00 | 0.00 | 52 | 1012.2 |
| 20260501232546 | 28 | 281 | 9.7 | 17.7 | 0.00 | 0.00 | 0.00 | 13 | 1012.5 |
| 20260501232045 | 27 | 209 | 6.4 | 20.9 | 0.00 | 0.00 | 0.00 | 14 | 1012.4 |
| 20260501231601 | 27 | 222 | 9.7 | 24.1 | 0.00 | 0.00 | 0.00 | 14 | 1012.5 |
| 20260501231559 | 25 | 227 | 11.3 | 24.1 | 0.00 | 0.00 | 0.00 | 51 | 1012.1 |
| 20260501231048 | 27 | 213 | 16.1 | 25.7 | 0.00 | 0.00 | 0.00 | 13 | 1012.5 |
| 20260501230545 | 27 | 207 | 16.1 | 25.7 | 0.00 | 0.00 | 0.00 | 13 | 1012.4 |
| 20260501230056 | 25 | 250 | 11.3 | 19.3 | 0.00 | 0.00 | 0.00 | 49 | 1012.1 |
| 20260501230050 | 27 | 206 | 14.5 | 22.5 | 0.00 | 0.00 | 0.00 | 13 | 1012.5 |
| 20260501225546 | 28 | 215 | 12.9 | 20.9 | 0.00 | 0.00 | 0.00 | 13 | 1012.5 |
| 20260501225047 | 27 | 257 | 9.7 | 19.3 | 0.00 | 0.00 | 0.00 | 14 | 1012.5 |
| 20260501224557 | 26 | 224 | 11.3 | 25.7 | 0.00 | 0.00 | 0.00 | 49 | 1012.3 |
| 20260501224552 | 27 | 162 | 4.8 | 25.7 | 0.00 | 0.00 | 0.00 | 14 | 1012.5 |
| 20260501224046 | 27 | 2 | 11.3 | 25.7 | 0.00 | 0.00 | 0.00 | 14 | 1012.6 |
| 20260501223547 | 27 | 293 | 12.9 | 25.7 | 0.00 | 0.00 | 0.00 | 14 | 1012.6 |
| 20260501223106 | 27 | 188 | 0.0 | 11.3 | 0.00 | 0.00 | 0.00 | 14 | 1012.7 |
| 20260501223051 | 26 | 207 | 9.7 | 22.5 | 0.00 | 0.00 | 0.00 | 47 | 1012.3 |
| 20260501222547 | 27 | 99 | 4.8 | 14.5 | 0.00 | 0.00 | 0.00 | 14 | 1012.7 |
| 20260501222050 | 26 | 201 | 4.8 | 14.5 | 0.00 | 0.00 | 0.00 | 14 | 1012.8 |
| 20260501221600 | 26 | 236 | 12.9 | 19.3 | 0.00 | 0.00 | 0.00 | 46 | 1012.6 |
| 20260501221558 | 26 | 257 | 3.2 | 22.5 | 0.00 | 0.00 | 0.00 | 14 | 1012.8 |
| 20260501221045 | 27 | 285 | 11.3 | 22.5 | 0.00 | 0.00 | 0.00 | 14 | 1013.0 |
| 20260501220545 | 27 | 264 | 8.0 | 19.3 | 0.00 | 0.00 | 0.00 | 14 | 1013.0 |
| 20260501220055 | 27 | 267 | 6.4 | 25.7 | 0.00 | 0.00 | 0.00 | 13 | 1013.2 |
| 20260501220052 | 26 | 282 | 14.5 | 22.5 | 0.00 | 0.00 | 0.00 | 47 | 1012.9 |
| 20260501215545 | 27 | 231 | 12.9 | 25.7 | 0.00 | 0.00 | 0.00 | 13 | 1013.2 |
| 20260501215046 | 27 | 208 | 12.9 | 25.7 | 0.00 | 0.00 | 0.00 | 13 | 1013.2 |
| 20260501214550 | 27 | 81 | 3.2 | 22.5 | 0.00 | 0.00 | 0.00 | 13 | 1013.2 |
| 20260501214046 | 27 | 236 | 12.9 | 27.4 | 0.00 | 0.00 | 0.00 | 14 | 1013.5 |
| 20260501213547 | 27 | 250 | 16.1 | 27.4 | 0.00 | 0.00 | 0.00 | 14 | 1013.4 |
| 20260501213111 | 26 | 186 | 3.2 | 12.9 | 0.00 | 0.00 | 0.00 | 14 | 1013.4 |
| 20260501213047 | 25 | 246 | 9.7 | 22.5 | 0.00 | 0.00 | 0.00 | 48 | 1013.1 |
| 20260501212545 | 26 | 243 | 3.2 | 20.9 | 0.00 | 0.00 | 0.00 | 15 | 1013.5 |
| 20260501212045 | 25 | 2 | 9.7 | 22.5 | 0.00 | 0.00 | 0.00 | 15 | 1013.6 |
| 20260501211604 | 25 | 224 | 12.9 | 24.1 | 0.00 | 0.00 | 0.00 | 48 | 1013.1 |
| 20260501211551 | 25 | 308 | 8.0 | 29.0 | 0.00 | 0.00 | 0.00 | 15 | 1013.7 |
| 20260501211045 | 26 | 344 | 16.1 | 29.0 | 0.00 | 0.00 | 0.00 | 15 | 1013.6 |
| 20260501210546 | 26 | 324 | 14.5 | 29.0 | 0.00 | 0.00 | 0.00 | 15 | 1013.5 |
| 20260501210052 | 26 | 295 | 9.7 | 29.0 | 0.00 | 0.00 | 0.00 | 14 | 1013.6 |
| 20260501210045 | 25 | 232 | 11.3 | 20.9 | 0.00 | 0.00 | 0.00 | 48 | 1013.2 |
| 20260501205548 | 26 | 319 | 20.9 | 27.4 | 0.00 | 0.00 | 0.00 | 14 | 1013.6 |
| 20260501205045 | 26 | 289 | 6.4 | 19.3 | 0.00 | 0.00 | 0.00 | 14 | 1013.6 |
| 20260501204555 | 25 | 246 | 8.0 | 19.3 | 0.00 | 0.00 | 0.00 | 49 | 1013.5 |
| 20260501204550 | 26 | 259 | 12.9 | 29.0 | 0.00 | 0.00 | 0.00 | 14 | 1013.7 |
| 20260501204045 | 26 | 4 | 12.9 | 29.0 | 0.00 | 0.00 | 0.00 | 14 | 1013.7 |
| 20260501203554 | 26 | 320 | 19.3 | 29.0 | 0.00 | 0.00 | 0.00 | 14 | 1013.6 |
| 20260501203101 | 26 | 255 | 4.8 | 27.4 | 0.00 | 0.00 | 0.00 | 14 | 1013.7 |
| 20260501203051 | 24 | 0 | 6.4 | 22.5 | 0.00 | 0.00 | 0.00 | 49 | 1013.4 |
| 20260501202543 | 26 | 313 | 8.0 | 27.4 | 0.00 | 0.00 | 0.00 | 14 | 1013.9 |
| 20260501202043 | 26 | 273 | 14.5 | 27.4 | 0.00 | 0.00 | 0.00 | 14 | 1014.0 |
| 20260501201551 | 26 | 134 | 16.1 | 25.7 | 0.00 | 0.00 | 0.00 | 14 | 1013.8 |
| 20260501201210 | 26 | 276 | 14.5 | 20.9 | 0.00 | 0.00 | 0.00 | 14 | 1014.0 |
| 20260501200548 | 26 | 236 | 9.7 | 29.0 | 0.00 | 0.00 | 0.00 | 15 | 1013.9 |
| 20260501200051 | 25 | 264 | 16.1 | 29.0 | 0.00 | 0.00 | 0.00 | 15 | 1013.9 |
| 20260501200049 | 23 | 191 | 11.3 | 24.1 | 0.00 | 0.00 | 0.00 | 53 | 1013.7 |
| 20260501195548 | 25 | 240 | 6.4 | 37.0 | 0.00 | 0.00 | 0.00 | 15 | 1013.9 |
| 20260501195048 | 25 | 4 | 17.7 | 37.0 | 0.00 | 0.00 | 0.00 | 15 | 1014.2 |
| 20260501194550 | 25 | 38 | 11.3 | 24.1 | 0.00 | 0.00 | 0.00 | 16 | 1014.2 |
| 20260501194547 | 22 | 207 | 11.3 | 22.5 | 0.00 | 0.00 | 0.00 | 55 | 1013.8 |
| 20260501194048 | 25 | 2 | 14.5 | 33.8 | 0.00 | 0.00 | 0.00 | 15 | 1014.2 |
| 20260501193550 | 25 | 24 | 22.5 | 38.6 | 0.00 | 0.00 | 0.00 | 15 | 1014.3 |
| 20260501193057 | 25 | 5 | 14.5 | 38.6 | 0.00 | 0.00 | 0.00 | 16 | 1014.3 |
| 20260501193046 | 22 | 304 | 6.4 | 17.7 | 0.00 | 0.00 | 0.00 | 55 | 1014.0 |
| 20260501192545 | 25 | 7 | 17.7 | 35.4 | 0.00 | 0.00 | 0.00 | 16 | 1014.4 |
| 20260501192043 | 25 | 23 | 17.7 | 25.7 | 0.00 | 0.00 | 0.00 | 16 | 1014.5 |
| 20260501191550 | 25 | 340 | 17.7 | 25.7 | 0.00 | 0.00 | 0.00 | 15 | 1014.6 |
| 20260501191541 | 22 | 263 | 4.8 | 14.5 | 0.00 | 0.00 | 0.00 | 58 | 1014.1 |
| 20260501191043 | 26 | 327 | 16.1 | 29.0 | 0.00 | 0.00 | 0.00 | 15 | 1014.6 |
| 20260501190558 | 25 | 327 | 17.7 | 29.0 | 0.00 | 0.00 | 0.00 | 15 | 1014.6 |
| 20260501190048 | 21 | 259 | 3.2 | 14.5 | 0.00 | 0.00 | 0.00 | 61 | 1014.4 |
| 20260501185546 | 25 | 18 | 14.5 | 27.4 | 0.00 | 0.00 | 0.00 | 15 | 1014.9 |
| 20260501185043 | 25 | 1 | 17.7 | 30.6 | 0.00 | 0.00 | 0.00 | 15 | 1014.9 |
| 20260501184606 | 25 | 311 | 19.3 | 38.6 | 0.00 | 0.00 | 0.00 | 15 | 1014.8 |
| 20260501184550 | 21 | 269 | 9.7 | 16.1 | 0.00 | 0.00 | 0.00 | 63 | 1014.6 |
| 20260501184049 | 25 | 309 | 16.1 | 38.6 | 0.00 | 0.00 | 0.00 | 15 | 1014.9 |
| 20260501183549 | 25 | 352 | 12.9 | 37.0 | 0.00 | 0.00 | 0.00 | 16 | 1014.9 |
| 20260501183058 | 25 | 321 | 20.9 | 37.0 | 0.00 | 0.00 | 0.00 | 16 | 1015.1 |
| 20260501183048 | 20 | 0 | 6.4 | 17.7 | 0.00 | 0.00 | 0.00 | 66 | 1014.7 |
| 20260501182542 | 25 | 334 | 19.3 | 37.0 | 0.00 | 0.00 | 0.00 | 16 | 1015.1 |
| 20260501182042 | 25 | 342 | 19.3 | 30.6 | 0.00 | 0.00 | 0.00 | 16 | 1015.2 |
| 20260501181554 | 25 | 346 | 19.3 | 30.6 | 0.00 | 0.00 | 0.00 | 16 | 1015.2 |
| 20260501181546 | 19 | 243 | 8.0 | 17.7 | 0.00 | 0.00 | 0.00 | 68 | 1014.9 |
| 20260501181043 | 25 | 331 | 19.3 | 35.4 | 0.00 | 0.00 | 0.00 | 16 | 1015.2 |
| 20260501180542 | 24 | 34 | 19.3 | 35.4 | 0.00 | 0.00 | 0.00 | 16 | 1015.2 |
| 20260501180051 | 24 | 1 | 16.1 | 35.4 | 0.00 | 0.00 | 0.00 | 16 | 1015.1 |
| 20260501180047 | 18 | 292 | 9.7 | 17.7 | 0.00 | 0.00 | 0.00 | 70 | 1014.9 |
| 20260501175546 | 25 | 22 | 19.3 | 29.0 | 0.00 | 0.00 | 0.00 | 16 | 1015.1 |
| 20260501175042 | 24 | 9 | 17.7 | 27.4 | 0.00 | 0.00 | 0.00 | 16 | 1015.1 |
| 20260501174552 | 24 | 6 | 17.7 | 29.0 | 0.00 | 0.00 | 0.00 | 16 | 1015.2 |
| 20260501174550 | 18 | 210 | 8.0 | 19.3 | 0.00 | 0.00 | 0.00 | 73 | 1015.0 |
| 20260501174046 | 24 | 30 | 14.5 | 32.2 | 0.00 | 0.00 | 0.00 | 16 | 1015.2 |
| 20260501173550 | 23 | 343 | 22.5 | 32.2 | 0.00 | 0.00 | 0.00 | 16 | 1015.2 |
| 20260501173110 | 23 | 5 | 17.7 | 35.4 | 0.00 | 0.00 | 0.00 | 16 | 1015.2 |
| 20260501173047 | 17 | 303 | 6.4 | 14.5 | 0.00 | 0.00 | 0.00 | 75 | 1015.1 |
| 20260501172551 | 23 | 25 | 22.5 | 35.4 | 0.00 | 0.00 | 0.00 | 16 | 1015.2 |
| 20260501172045 | 23 | 357 | 22.5 | 35.4 | 0.00 | 0.00 | 0.00 | 17 | 1015.2 |
| 20260501171558 | 23 | 336 | 22.5 | 33.8 | 0.00 | 0.00 | 0.00 | 17 | 1015.2 |
| 20260501171547 | 16 | 338 | 4.8 | 11.3 | 0.00 | 0.00 | 0.00 | 78 | 1015.0 |
| 20260501171044 | 23 | 342 | 20.9 | 30.6 | 0.00 | 0.00 | 0.00 | 17 | 1015.2 |
| 20260501170544 | 23 | 318 | 20.9 | 30.6 | 0.00 | 0.00 | 0.00 | 17 | 1015.2 |
| 20260501170213 | 23 | 350 | 20.9 | 30.6 | 0.00 | 0.00 | 0.00 | 17 | 1015.2 |
| 20260501170113 | 23 | 350 | 20.9 | 30.6 | 0.00 | 0.00 | 0.00 | 17 | 1015.2 |
| 20260501170049 | 16 | 277 | 1.6 | 11.3 | 0.00 | 0.00 | 0.00 | 80 | 1015.2 |
| 20260501165545 | 23 | 355 | 19.3 | 30.6 | 0.00 | 0.00 | 0.00 | 17 | 1015.2 |
| 20260501165049 | 23 | 359 | 19.3 | 32.2 | 0.00 | 0.00 | 0.00 | 17 | 1015.2 |
| 20260501164603 | 23 | 354 | 19.3 | 32.2 | 0.00 | 0.00 | 0.00 | 17 | 1015.0 |
| 20260501164543 | 15 | 277 | 3.2 | 9.7 | 0.00 | 0.00 | 0.00 | 86 | 1015.2 |
| 20260501164045 | 23 | 329 | 19.3 | 32.2 | 0.00 | 0.00 | 0.00 | 17 | 1015.0 |
| 20260501163545 | 23 | 340 | 19.3 | 32.2 | 0.00 | 0.00 | 0.00 | 17 | 1015.0 |
| 20260501163057 | 23 | 18 | 20.9 | 32.2 | 0.00 | 0.00 | 0.00 | 17 | 1014.8 |
| 20260501163045 | 13 | 299 | 4.8 | 11.3 | 0.00 | 0.00 | 0.00 | 90 | 1015.3 |
| 20260501162545 | 22 | 334 | 17.7 | 32.2 | 0.00 | 0.00 | 0.00 | 18 | 1014.8 |
| 20260501162045 | 22 | 300 | 17.7 | 27.4 | 0.00 | 0.00 | 0.00 | 18 | 1014.8 |
| 20260501161552 | 12 | 167 | 1.6 | 6.4 | 0.00 | 0.00 | 0.00 | 95 | 1015.2 |
| 20260501161549 | 22 | 333 | 19.3 | 27.4 | 0.00 | 0.00 | 0.00 | 18 | 1014.8 |
| 20260501161044 | 22 | 336 | 19.3 | 27.4 | 0.00 | 0.00 | 0.00 | 18 | 1014.8 |
| 20260501160544 | 22 | 301 | 19.3 | 27.4 | 0.00 | 0.00 | 0.00 | 18 | 1014.8 |
| 20260501160052 | 22 | 296 | 17.7 | 30.6 | 0.00 | 0.00 | 0.00 | 18 | 1014.8 |
| 20260501155545 | 22 | 356 | 16.1 | 30.6 | 0.00 | 0.00 | 0.00 | 18 | 1014.6 |
| 20260501155049 | 22 | 311 | 17.7 | 30.6 | 0.00 | 0.00 | 0.00 | 18 | 1014.5 |
| 20260501154559 | 11 | 289 | 4.8 | 12.9 | 0.00 | 0.00 | 0.00 | 96 | 1015.2 |
| 20260501154555 | 22 | 323 | 19.3 | 30.6 | 0.00 | 0.00 | 0.00 | 18 | 1014.5 |
| 20260501154044 | 22 | 342 | 19.3 | 30.6 | 0.00 | 0.00 | 0.00 | 18 | 1014.3 |